Flag for U.S.A. Weather past 2 weeks in Seattle, Washington, U.S.A.

Now
62 °F

Clear.


Feels Like: 62 °F
Forecast: 51 / 63 °F
Wind: No wind

Location: Seattle Boeing Field

Current Time: Apr 28, 2015 at 12:42:09 AM

Latest Report: Apr 27, 2015 at 11:53 PM


Visibility: 10 mi

Pressure: 29.89 "Hg

Humidity: 70%

Dew point: 52 °F

Location of SeattleLocation

Historic Weather in Seattle — Graph

°F

Seattle temperature yesterday

Maximum temperature yesterday: 78 °F (at 5:53 PM)
Minimum temperature yesterday: 54 °F (at 3:00 AM)
Average temperature yesterday: 64 °F

Past Weeks' High & Low Weather Summary

 TemperatureHumidityPressure
High78 °F (Apr 27, 5:53 PM)100% (Apr 13, 6:53 PM)30.56 "Hg (Apr 13, 6:53 PM)
Low39 °F (Apr 15, 5:53 AM)24% (Apr 22, 3:53 PM)29.77 "Hg (Apr 24, 3:53 AM)
Average54 °F62%30.12 "Hg
* Reported Apr 12 10:53 PM — Apr 27 10:53 PM, Seattle, Weather by CustomWeather, © 2015

Note: Actual official high and low records may vary slightly from our data, if they occured in-between our weather recording intervals... More about our weather records

Advertising

Seattle weather history for previous 24 hours

 ConditionsComfort  
Time TempWeatherWind HumidityBarometerVisibility
10:53 PM
Mon, Apr 27
63 °FClear.No wind68%29.90 "Hg10 mi
9:53 PM64 °FClear.5 mph65%29.92 "Hg10 mi
8:53 PM66 °FScattered clouds.5 mph61%29.92 "Hg10 mi
7:53 PM70 °FScattered clouds.6 mph53%29.93 "Hg10 mi
6:53 PM76 °FSunny.7 mph39%29.94 "Hg10 mi
5:53 PM78 °FScattered clouds.6 mph37%29.96 "Hg10 mi
4:53 PM77 °FPartly sunny.10 mph40%30.00 "Hg10 mi
3:53 PM76 °FScattered clouds.7 mph42%30.04 "Hg10 mi
2:53 PM75 °FSunny.3 mph45%30.09 "Hg10 mi
1:53 PM72 °FScattered clouds.5 mph48%30.12 "Hg10 mi
12:53 PM71 °FScattered clouds.6 mph49%30.15 "Hg10 mi
11:53 AM69 °FScattered clouds.3 mph55%30.18 "Hg10 mi
10:53 AM66 °FScattered clouds.No wind61%30.22 "Hg10 mi
9:53 AM62 °FScattered clouds.7 mph67%30.24 "Hg10 mi
8:53 AM59 °FBroken clouds.5 mph75%30.26 "Hg10 mi
7:53 AM56 °FPartly sunny.8 mph81%30.27 "Hg10 mi
6:53 AM55 °FMostly cloudy.9 mph83%30.25 "Hg10 mi
5:53 AM54 °FMostly cloudy.7 mph86%30.26 "Hg10 mi
4:53 AM54 °FLight rain. Overcast.7 mph86%30.26 "Hg8 mi
3:53 AM54 °FMostly cloudy.7 mph83%30.26 "Hg8 mi
3:00 AM54 °FMostly cloudy.7 mph82%30.26 "Hg10 mi
1:53 AM55 °FMostly cloudy.6 mph77%30.26 "Hg10 mi
12:53 AM55 °FMostly cloudy.8 mph77%30.27 "Hg10 mi
Weather by CustomWeather, © 2015

See weather overviewHow to use our weather pages